Meteo Giornale » Osservazioni meteo Stati Uniti (USA) » College Park

ore: 14:55 - Osservazioni Meteo College Park
Lat. 38° 59' N Lon. 76° 55' W Alt. 15 metri s.l.m.

foschia

35 °C

Foschia

Temp. 24 Ore

23 °C

35 °C

Ovest

16.7 Km/h

Dew point 21 °C

Umidità 44 %

Visibilità  8 Km

Il sole sorge alle ore 06:36

Il sole tramonta alle ore 19:38

Data e Ora Cielo e Fenomeni T °C DP °C Um. % Pres. hPa Vis. km Vento km/h
Oggi h: 14:55 foschia Foschia 35 21 44 1015 8 O 16.7
Oggi h: 14:35 nuvoloso Nuvoloso 35 20 41 1015 11 O/NO 16.7
Oggi h: 14:15 molto_nuvoloso Molto Nuvoloso 35 22 47 1015 10 NO 13
Oggi h: 13:55 nuvoloso Nuvoloso 34 22 49 1015 11 O 11.1
Oggi h: 13:35 foschia Foschia 34 22 49 1015 11 NO 16.7
Oggi h: 13:15 sereno Sereno 33 22 52 1015 10 O 11.1
Oggi h: 12:55 sereno Sereno 33 22 52 1016 10 O/NO 11.1
Oggi h: 12:35 sereno Sereno 33 22 52 1016 10 NO 13
Oggi h: 12:15 foschia Foschia 34 22 49 1016 11 N/NO 11.1
Oggi h: 11:55 foschia Foschia 33 22 52 1016 6 O 13
Oggi h: 11:35 sereno Sereno 32 22 55 1016 10 O 11.1
Oggi h: 11:15 foschia Foschia 32 22 55 1017 8 O 7.4
Oggi h: 10:55 foschia Foschia 33 21 49 1017 2 O 11.1
Oggi h: 10:35 sereno Sereno 31 22 58 1017 10 O/NO 9.3
Oggi h: 10:15 sereno Sereno 31 22 58 1017 10 O 7.4
Oggi h: 09:55 sereno Sereno 31 22 58 1017 10 N 5.5
Oggi h: 09:35 sereno Sereno 30 22 62 1017 10 O/SO 7.4
Oggi h: 09:15 sereno Sereno 29 22 66 1017 10 N 5.5
Oggi h: 08:55 sereno Sereno 28 22 69 1017 10 N 0
Oggi h: 08:35 sereno Sereno 28 22 69 1017 10 N 5.5
Oggi h: 08:15 sereno Sereno 27 23 78 1017 10 N 5.5
Oggi h: 07:55 sereno Sereno 25 24 94 1017 10 N 0
Oggi h: 07:35 sereno Sereno 24 23 94 1017 11 N 0
Oggi h: 07:15 foschia Foschia 23 23 100 1017 6 N 0
Oggi h: 06:55 foschia Foschia 23 22 94 1017 8 N 0
Oggi h: 06:35 foschia Foschia 23 22 94 1017 8 N 0
Oggi h: 06:15 foschia Foschia 23 22 94 1017 8 N 0
Oggi h: 05:55 foschia Foschia 23 22 94 1016 11 N 0
Oggi h: 05:35 sereno Sereno 23 23 100 1016 11 N 5.5
Oggi h: 05:15 foschia Foschia 23 23 100 1017 2 N 0
Oggi h: 04:55 foschia Foschia 23 22 94 1017 8 N 0
Oggi h: 04:35 foschia Foschia 23 23 100 1017 8 N 0
Oggi h: 04:15 foschia Foschia 23 23 100 1017 8 N 0
Oggi h: 03:55 sereno Sereno 24 23 94 1017 10 N 0
Oggi h: 03:35 sereno Sereno 24 23 94 1017 10 N 0
Oggi h: 03:15 sereno Sereno 24 23 94 1017 10 N 0
Oggi h: 02:55 sereno Sereno 24 23 94 1017 10 N 0
Oggi h: 02:35 sereno Sereno 24 23 94 1017 10 N 0
Oggi h: 02:15 sereno Sereno 23 23 100 1017 11 N 0
Oggi h: 01:55 sereno Sereno 24 22 88 1017 10 N 0
Oggi h: 01:35 sereno Sereno 24 23 94 1018 10 N 0
Oggi h: 01:15 sereno Sereno 24 22 88 1018 10 N 0
Oggi h: 00:55 nuvoloso Nuvoloso 24 22 88 1018 10 N 0
Oggi h: 00:35 nuvoloso Nuvoloso 24 22 88 1018 10 N 0
Oggi h: 00:15 sereno Sereno 23 22 94 1018 10 N 0
Ieri h: 23:55 nuvoloso Nuvoloso 23 22 94 1018 10 N 0
Ieri h: 23:35 nuvoloso Nuvoloso 24 22 88 1018 10 N 0
Ieri h: 23:15 sereno Sereno 23 23 100 1018 10 N 0
Ieri h: 22:55 sereno Sereno 24 22 88 1018 10 N 5.5
Ieri h: 22:35 sereno Sereno 24 22 88 1018 10 N 0
Ieri h: 22:15 sereno Sereno 25 23 88 1018 10 N 0
Ieri h: 21:55 sereno Sereno 24 23 94 1018 10 N 0
Ieri h: 21:35 sereno Sereno 25 23 88 1018 10 N 0
Ieri h: 21:15 sereno Sereno 25 23 88 1018 10 N 0
Ieri h: 20:55 sereno Sereno 26 23 83 1018 10 N 0
Ieri h: 20:35 sereno Sereno 26 23 83 1018 10 N 0
Ieri h: 20:15 sereno Sereno 27 23 78 1018 10 N 0
Ieri h: 19:55 sereno Sereno 27 23 78 1018 10 N 5.5
Ieri h: 19:35 sereno Sereno 28 22 69 1018 10 E/SE 7.4
Ieri h: 19:15 sereno Sereno 28 23 74 1018 10 N 5.5
Ieri h: 18:55 sereno Sereno 29 22 66 1018 10 E 7.4
Ieri h: 18:35 sereno Sereno 29 22 66 1018 10 N 5.5
Ieri h: 18:15 nuvoloso Nuvoloso 29 22 66 1018 10 N 0
Ieri h: 17:55 sereno Sereno 29 22 66 1018 10 N 5.5
Ieri h: 17:35 sereno Sereno 30 21 58 1018 10 N 0
Ieri h: 17:15 sereno Sereno 30 21 58 1018 10 N 0
Ieri h: 16:55 sereno Sereno 30 21 58 1018 10 N 5.5
Ieri h: 16:35 sereno Sereno 30 21 58 1018 10 N 7.4
Ieri h: 16:15 sereno Sereno 30 22 62 1018 10 N/NE 7.4
Ieri h: 15:55 sereno Sereno 30 22 62 1018 10 N 0
Ieri h: 15:35 sereno Sereno 30 21 58 1018 10 N 5.5